﻿測定場所 (Monitoring sites),日付 (Measurement date),時間 (Measurement time),線量率 最大値 (max) μGy/h,線量率 最小値 (min) μGy/h,線量率 平均値 (average) μGy/h,
足立 (Adachi),2015-09-13,23:01～24:00,0.0376,0.0330,0.0353,
足立 (Adachi),2015-09-13,22:01～23:00,0.0376,0.0329,0.0351,
足立 (Adachi),2015-09-13,21:01～22:00,0.0365,0.0324,0.0345,
足立 (Adachi),2015-09-13,20:01～21:00,0.0366,0.0325,0.0347,
足立 (Adachi),2015-09-13,19:01～20:00,0.0365,0.0326,0.0344,
足立 (Adachi),2015-09-13,18:01～19:00,0.0366,0.0330,0.0344,
足立 (Adachi),2015-09-13,17:01～18:00,0.0363,0.0324,0.0343,
足立 (Adachi),2015-09-13,16:01～17:00,0.0367,0.0325,0.0343,
足立 (Adachi),2015-09-13,15:01～16:00,0.0361,0.0333,0.0346,
足立 (Adachi),2015-09-13,14:01～15:00,0.0370,0.0326,0.0346,
足立 (Adachi),2015-09-13,13:01～14:00,0.0367,0.0322,0.0345,
足立 (Adachi),2015-09-13,12:01～13:00,0.0368,0.0317,0.0348,
足立 (Adachi),2015-09-13,11:01～12:00,0.0369,0.0332,0.0349,
足立 (Adachi),2015-09-13,10:01～11:00,0.0369,0.0323,0.0344,
足立 (Adachi),2015-09-13,09:01～10:00,0.0370,0.0324,0.0347,
足立 (Adachi),2015-09-13,08:01～09:00,0.0365,0.0326,0.0345,
足立 (Adachi),2015-09-13,07:01～08:00,0.0374,0.0326,0.0345,
足立 (Adachi),2015-09-13,06:01～07:00,0.0370,0.0328,0.0347,
足立 (Adachi),2015-09-13,05:01～06:00,0.0366,0.0333,0.0350,
足立 (Adachi),2015-09-13,04:01～05:00,0.0367,0.0328,0.0351,
足立 (Adachi),2015-09-13,03:01～04:00,0.0376,0.0336,0.0354,
足立 (Adachi),2015-09-13,02:01～03:00,0.0369,0.0323,0.0351,
足立 (Adachi),2015-09-13,01:01～02:00,0.0368,0.0319,0.0349,
足立 (Adachi),2015-09-13,00:01～01:00,0.0369,0.0338,0.0353,
足立 (Adachi),2015-09-12,23:01～24:00,0.0371,0.0327,0.0349,
足立 (Adachi),2015-09-12,22:01～23:00,0.0368,0.0333,0.0350,
足立 (Adachi),2015-09-12,21:01～22:00,0.0366,0.0329,0.0349,
足立 (Adachi),2015-09-12,20:01～21:00,0.0375,0.0327,0.0349,
足立 (Adachi),2015-09-12,19:01～20:00,0.0369,0.0330,0.0350,
足立 (Adachi),2015-09-12,18:01～19:00,0.0364,0.0321,0.0343,
足立 (Adachi),2015-09-12,17:01～18:00,0.0365,0.0320,0.0342,
足立 (Adachi),2015-09-12,16:01～17:00,0.0366,0.0323,0.0342,
足立 (Adachi),2015-09-12,15:01～16:00,0.0355,0.0318,0.0342,
足立 (Adachi),2015-09-12,14:01～15:00,0.0354,0.0324,0.0340,
足立 (Adachi),2015-09-12,13:01～14:00,0.0359,0.0319,0.0341,
足立 (Adachi),2015-09-12,12:01～13:00,0.0368,0.0322,0.0341,
足立 (Adachi),2015-09-12,11:01～12:00,0.0366,0.0328,0.0345,
足立 (Adachi),2015-09-12,10:01～11:00,0.0372,0.0326,0.0350,
足立 (Adachi),2015-09-12,09:01～10:00,0.0372,0.0323,0.0346,
足立 (Adachi),2015-09-12,08:01～09:00,0.0370,0.0327,0.0346,
足立 (Adachi),2015-09-12,07:01～08:00,0.0370,0.0319,0.0345,
足立 (Adachi),2015-09-12,06:01～07:00,0.0371,0.0326,0.0345,
足立 (Adachi),2015-09-12,05:01～06:00,0.0364,0.0329,0.0350,
足立 (Adachi),2015-09-12,04:01～05:00,0.0369,0.0327,0.0350,
足立 (Adachi),2015-09-12,03:01～04:00,0.0369,0.0319,0.0348,
足立 (Adachi),2015-09-12,02:01～03:00,0.0366,0.0328,0.0344,
足立 (Adachi),2015-09-12,01:01～02:00,0.0363,0.0325,0.0342,
足立 (Adachi),2015-09-12,00:01～01:00,0.0363,0.0324,0.0342,
足立 (Adachi),2015-09-11,23:01～24:00,0.0363,0.0330,0.0346,
足立 (Adachi),2015-09-11,22:01～23:00,0.0364,0.0318,0.0345,
足立 (Adachi),2015-09-11,21:01～22:00,0.0371,0.0322,0.0345,
足立 (Adachi),2015-09-11,20:01～21:00,0.0375,0.0328,0.0349,
足立 (Adachi),2015-09-11,19:01～20:00,0.0360,0.0323,0.0343,
足立 (Adachi),2015-09-11,18:01～19:00,0.0358,0.0327,0.0341,
足立 (Adachi),2015-09-11,17:01～18:00,0.0360,0.0311,0.0340,
足立 (Adachi),2015-09-11,16:01～17:00,0.0355,0.0320,0.0340,
足立 (Adachi),2015-09-11,15:01～16:00,0.0353,0.0316,0.0340,
足立 (Adachi),2015-09-11,14:01～15:00,0.0358,0.0303,0.0339,
足立 (Adachi),2015-09-11,13:01～14:00,0.0358,0.0321,0.0341,
足立 (Adachi),2015-09-11,12:01～13:00,0.0363,0.0324,0.0340,
足立 (Adachi),2015-09-11,11:01～12:00,0.0359,0.0324,0.0342,
足立 (Adachi),2015-09-11,10:01～11:00,0.0363,0.0322,0.0343,
足立 (Adachi),2015-09-11,09:01～10:00,0.0363,0.0330,0.0346,
足立 (Adachi),2015-09-11,08:01～09:00,0.0362,0.0328,0.0344,
足立 (Adachi),2015-09-11,07:01～08:00,0.0361,0.0322,0.0338,
足立 (Adachi),2015-09-11,06:01～07:00,0.0358,0.0309,0.0337,
足立 (Adachi),2015-09-11,05:01～06:00,0.0340,0.0304,0.0318,
足立 (Adachi),2015-09-11,04:01～05:00,0.0336,0.0296,0.0315,
足立 (Adachi),2015-09-11,03:01～04:00,0.0332,0.0292,0.0312,
足立 (Adachi),2015-09-11,02:01～03:00,0.0339,0.0297,0.0316,
足立 (Adachi),2015-09-11,01:01～02:00,0.0336,0.0297,0.0316,
足立 (Adachi),2015-09-11,00:01～01:00,0.0347,0.0307,0.0326,
足立 (Adachi),2015-09-10,23:01～24:00,0.0337,0.0290,0.0313,
足立 (Adachi),2015-09-10,22:01～23:00,0.0334,0.0293,0.0314,
足立 (Adachi),2015-09-10,21:01～22:00,0.0338,0.0298,0.0313,
足立 (Adachi),2015-09-10,20:01～21:00,0.0330,0.0295,0.0312,
足立 (Adachi),2015-09-10,19:01～20:00,0.0344,0.0301,0.0322,
足立 (Adachi),2015-09-10,18:01～19:00,0.0350,0.0297,0.0320,
足立 (Adachi),2015-09-10,17:01～18:00,0.0339,0.0309,0.0323,
足立 (Adachi),2015-09-10,16:01～17:00,0.0364,0.0314,0.0339,
足立 (Adachi),2015-09-10,15:01～16:00,0.0370,0.0325,0.0344,
足立 (Adachi),2015-09-10,14:01～15:00,0.0415,0.0349,0.0375,
足立 (Adachi),2015-09-10,13:01～14:00,0.0435,0.0368,0.0403,
足立 (Adachi),2015-09-10,12:01～13:00,0.0479,0.0405,0.0440,
足立 (Adachi),2015-09-10,11:01～12:00,0.0444,0.0342,0.0378,
足立 (Adachi),2015-09-10,10:01～11:00,0.0456,0.0369,0.0415,
足立 (Adachi),2015-09-10,09:01～10:00,0.0453,0.0379,0.0418,
足立 (Adachi),2015-09-10,08:01～09:00,0.0432,0.0352,0.0387,
足立 (Adachi),2015-09-10,07:01～08:00,0.0405,0.0338,0.0375,
足立 (Adachi),2015-09-10,06:01～07:00,0.0442,0.0370,0.0408,
足立 (Adachi),2015-09-10,05:01～06:00,0.0433,0.0368,0.0403,
足立 (Adachi),2015-09-10,04:01～05:00,0.0480,0.0379,0.0433,
足立 (Adachi),2015-09-10,03:01～04:00,0.0432,0.0341,0.0373,
足立 (Adachi),2015-09-10,02:01～03:00,0.0399,0.0342,0.0370,
足立 (Adachi),2015-09-10,01:01～02:00,0.0387,0.0323,0.0353,
足立 (Adachi),2015-09-10,00:01～01:00,0.0358,0.0325,0.0341,
足立 (Adachi),2015-09-09,23:01～24:00,0.0375,0.0329,0.0355,
足立 (Adachi),2015-09-09,22:01～23:00,0.0401,0.0337,0.0359,
足立 (Adachi),2015-09-09,21:01～22:00,0.0375,0.0339,0.0361,
足立 (Adachi),2015-09-09,20:01～21:00,0.0371,0.0323,0.0354,
足立 (Adachi),2015-09-09,19:01～20:00,0.0355,0.0321,0.0339,
足立 (Adachi),2015-09-09,18:01～19:00,0.0361,0.0317,0.0339,
足立 (Adachi),2015-09-09,17:01～18:00,0.0373,0.0334,0.0356,
足立 (Adachi),2015-09-09,16:01～17:00,0.0389,0.0341,0.0364,
足立 (Adachi),2015-09-09,15:01～16:00,0.0388,0.0338,0.0356,
足立 (Adachi),2015-09-09,14:01～15:00,0.0384,0.0337,0.0360,
足立 (Adachi),2015-09-09,13:01～14:00,0.0396,0.0346,0.0364,
足立 (Adachi),2015-09-09,12:01～13:00,0.0385,0.0339,0.0359,
足立 (Adachi),2015-09-09,11:01～12:00,0.0371,0.0327,0.0344,
足立 (Adachi),2015-09-09,10:01～11:00,0.0370,0.0337,0.0354,
足立 (Adachi),2015-09-09,09:01～10:00,0.0367,0.0330,0.0350,
足立 (Adachi),2015-09-09,08:01～09:00,0.0357,0.0321,0.0339,
足立 (Adachi),2015-09-09,07:01～08:00,0.0371,0.0322,0.0346,
足立 (Adachi),2015-09-09,06:01～07:00,0.0389,0.0335,0.0357,
足立 (Adachi),2015-09-09,05:01～06:00,0.0367,0.0325,0.0348,
足立 (Adachi),2015-09-09,04:01～05:00,0.0370,0.0325,0.0350,
足立 (Adachi),2015-09-09,03:01～04:00,0.0365,0.0326,0.0347,
足立 (Adachi),2015-09-09,02:01～03:00,0.0421,0.0341,0.0379,
足立 (Adachi),2015-09-09,01:01～02:00,0.0429,0.0362,0.0397,
足立 (Adachi),2015-09-09,00:01～01:00,0.0425,0.0361,0.0391,
足立 (Adachi),2015-09-08,23:01～24:00,0.0397,0.0350,0.0370,
足立 (Adachi),2015-09-08,22:01～23:00,0.0445,0.0357,0.0392,
足立 (Adachi),2015-09-08,21:01～22:00,0.0419,0.0351,0.0376,
足立 (Adachi),2015-09-08,20:01～21:00,0.0413,0.0353,0.0372,
足立 (Adachi),2015-09-08,19:01～20:00,0.0448,0.0365,0.0407,
足立 (Adachi),2015-09-08,18:01～19:00,0.0492,0.0428,0.0460,
足立 (Adachi),2015-09-08,17:01～18:00,0.0511,0.0438,0.0474,
足立 (Adachi),2015-09-08,16:01～17:00,0.0508,0.0427,0.0471,
足立 (Adachi),2015-09-08,15:01～16:00,0.0466,0.0366,0.0414,
足立 (Adachi),2015-09-08,14:01～15:00,0.0408,0.0356,0.0380,
足立 (Adachi),2015-09-08,13:01～14:00,0.0415,0.0364,0.0387,
足立 (Adachi),2015-09-08,12:01～13:00,0.0445,0.0384,0.0409,
足立 (Adachi),2015-09-08,11:01～12:00,0.0419,0.0367,0.0399,
足立 (Adachi),2015-09-08,10:01～11:00,0.0457,0.0364,0.0393,
足立 (Adachi),2015-09-08,09:01～10:00,0.0416,0.0361,0.0386,
足立 (Adachi),2015-09-08,08:01～09:00,0.0454,0.0367,0.0401,
足立 (Adachi),2015-09-08,07:01～08:00,0.0503,0.0418,0.0457,
足立 (Adachi),2015-09-08,06:01～07:00,0.0526,0.0434,0.0469,
足立 (Adachi),2015-09-08,05:01～06:00,0.0497,0.0420,0.0456,
足立 (Adachi),2015-09-08,04:01～05:00,0.0489,0.0432,0.0459,
足立 (Adachi),2015-09-08,03:01～04:00,0.0501,0.0415,0.0459,
足立 (Adachi),2015-09-08,02:01～03:00,0.0475,0.0371,0.0419,
足立 (Adachi),2015-09-08,01:01～02:00,0.0455,0.0368,0.0406,
足立 (Adachi),2015-09-08,00:01～01:00,0.0444,0.0357,0.0404,
足立 (Adachi),2015-09-07,23:01～24:00,0.0405,0.0339,0.0363,
足立 (Adachi),2015-09-07,22:01～23:00,0.0425,0.0347,0.0375,
足立 (Adachi),2015-09-07,21:01～22:00,0.0449,0.0385,0.0415,
足立 (Adachi),2015-09-07,20:01～21:00,0.0418,0.0332,0.0371,
足立 (Adachi),2015-09-07,19:01～20:00,0.0406,0.0353,0.0373,
足立 (Adachi),2015-09-07,18:01～19:00,0.0400,0.0326,0.0360,
足立 (Adachi),2015-09-07,17:01～18:00,0.0353,0.0314,0.0336,
足立 (Adachi),2015-09-07,16:01～17:00,0.0362,0.0319,0.0342,
足立 (Adachi),2015-09-07,15:01～16:00,0.0372,0.0326,0.0348,
足立 (Adachi),2015-09-07,14:01～15:00,0.0431,0.0352,0.0385,
足立 (Adachi),2015-09-07,13:01～14:00,0.0467,0.0376,0.0425,
足立 (Adachi),2015-09-07,12:01～13:00,0.0422,0.0346,0.0385,
足立 (Adachi),2015-09-07,11:01～12:00,0.0371,0.0328,0.0350,
足立 (Adachi),2015-09-07,10:01～11:00,0.0362,0.0312,0.0337,
足立 (Adachi),2015-09-07,09:01～10:00,0.0357,0.0317,0.0339,
足立 (Adachi),2015-09-07,08:01～09:00,0.0376,0.0328,0.0351,
足立 (Adachi),2015-09-07,07:01～08:00,0.0389,0.0345,0.0365,
足立 (Adachi),2015-09-07,06:01～07:00,0.0373,0.0326,0.0348,
足立 (Adachi),2015-09-07,05:01～06:00,0.0374,0.0329,0.0352,
足立 (Adachi),2015-09-07,04:01～05:00,0.0443,0.0355,0.0395,
足立 (Adachi),2015-09-07,03:01～04:00,0.0459,0.0389,0.0422,
足立 (Adachi),2015-09-07,02:01～03:00,0.0443,0.0384,0.0412,
足立 (Adachi),2015-09-07,01:01～02:00,0.0488,0.0411,0.0449,
足立 (Adachi),2015-09-07,00:01～01:00,0.0497,0.0413,0.0466,
